Date String (YYYY-MM-DD hh:mm:ss) UTC,Instrument flags,Ambient pressure (hPa),Sample flow (lpm),Bypass flow (lpm),Sample temperature (°C),Ambient temperature (°C),ASC tube jacket temperature (°C),LED temperature (°C),Box temperature (°C),Sample RH (%),Span deviation,Mass concentration (μg/m³),Mass concentration (μg/m³),Mass concentration (μg/m³)
DateTimeUTC,F1_M11,P_M11,Q1_M11,Q2_M11,T1_M11,T2_M11,T3_M11,T4_M11,T5_M11,U1_M11,ZSPAN_M11,X0_M11,X2_M11,X1_M11
2021-12-14 09:00:00,,0823.4,5.00,0.00,25.9,25.0,00.0,34.9,27.6,06.6,0000.0,0017.17,0005.27,0003.92
2021-12-14 09:01:00,,0823.3,5.02,0.00,25.9,25.0,00.0,34.9,27.6,06.6,0000.0,0016.90,0005.17,0003.87
2021-12-14 09:02:00,,0823.3,4.99,0.00,25.9,25.0,00.0,34.9,27.6,06.6,0000.0,0017.06,0004.98,0003.82
2021-12-14 09:03:00,,0823.4,4.99,0.00,25.9,25.0,00.0,34.9,27.6,06.7,0000.0,0017.43,0004.96,0003.80
2021-12-14 09:04:00,,0823.4,4.99,0.00,25.9,25.0,00.0,34.9,27.7,06.8,0000.0,0017.97,0005.00,0003.81
2021-12-14 09:05:00,,0823.4,5.01,0.00,25.9,25.0,00.0,34.8,27.6,07.0,0000.0,0017.56,0005.09,0003.83
2021-12-14 09:06:00,,0823.4,4.99,0.00,25.9,25.0,00.0,34.8,27.6,07.2,0000.0,0018.70,0005.18,0003.87
2021-12-14 09:07:00,,0823.3,5.02,0.00,25.9,25.0,00.0,34.8,27.6,07.1,0000.0,0018.48,0005.20,0003.90
2021-12-14 09:08:00,,0823.3,4.99,0.00,25.8,25.0,00.0,34.8,27.6,07.3,0001.5,0019.44,0005.31,0003.98
2021-12-14 09:09:00,,0823.4,5.02,0.00,25.8,24.9,00.0,34.8,27.6,07.4,0003.1,0020.48,0005.51,0004.09
2021-12-14 09:10:00,,0823.3,5.01,0.00,25.8,24.9,00.0,34.8,27.6,07.5,0002.6,0021.51,0005.82,0004.20
2021-12-14 09:11:00,,0823.3,4.99,0.00,25.8,24.9,00.0,34.8,27.6,07.5,0002.6,0023.86,0006.11,0004.29
2021-12-14 09:12:00,,0823.3,5.00,0.00,25.8,24.9,00.0,34.8,27.6,07.5,0003.3,0024.93,0006.34,0004.40
2021-12-14 09:13:00,,0823.3,5.00,0.00,25.8,24.9,00.0,34.8,27.6,07.6,0003.2,0025.98,0006.61,0004.53
2021-12-14 09:14:00,,0823.3,5.00,0.00,25.8,24.9,00.0,34.8,27.6,07.5,0003.4,0027.42,0006.84,0004.62
2021-12-14 09:15:00,,0823.3,5.02,0.00,25.8,24.9,00.0,34.8,27.6,07.6,0003.8,0028.53,0007.02,0004.71
2021-12-14 09:16:00,,0823.4,4.99,0.00,25.8,25.0,00.0,34.8,27.6,07.6,0003.8,0029.58,0007.16,0004.79
2021-12-14 09:17:00,,0823.3,5.01,0.00,25.8,24.9,00.0,34.8,27.6,07.6,0003.1,0029.75,0007.27,0004.84
2021-12-14 09:18:00,,0823.4,4.98,0.00,25.8,24.9,00.0,34.8,27.6,07.6,0003.1,0030.40,0007.44,0004.89
2021-12-14 09:19:00,,0823.4,5.00,0.00,25.8,24.9,00.0,34.8,27.6,07.6,0003.5,0030.95,0007.56,0004.92
2021-12-14 09:20:00,,0823.3,5.00,0.00,25.8,24.9,00.0,34.8,27.6,07.6,0002.8,0031.22,0007.65,0004.92
2021-12-14 09:21:00,,0823.3,5.00,0.00,25.8,24.9,00.0,34.8,27.6,07.6,0003.0,0030.66,0007.68,0004.94
2021-12-14 09:22:00,,0823.4,5.02,0.00,25.8,24.9,00.0,34.8,27.6,07.6,0003.6,0030.90,0007.65,0004.96
2021-12-14 09:23:00,,0823.3,4.98,0.00,25.8,24.9,00.0,34.8,27.6,07.3,0001.6,0031.01,0007.63,0004.96
2021-12-14 09:24:00,,0823.3,5.02,0.00,25.8,24.9,00.0,34.8,27.6,07.2,0001.4,0030.45,0007.58,0004.90
2021-12-14 09:25:00,,0823.2,4.99,0.00,25.8,24.9,00.0,34.8,27.6,07.5,0002.5,0029.46,0007.56,0004.88
2021-12-14 09:26:00,,0823.1,5.00,0.00,25.8,24.9,00.0,34.8,27.6,07.7,0002.1,0028.60,0007.57,0004.86
2021-12-14 09:27:00,,0823.1,5.01,0.00,25.8,24.9,00.0,34.8,27.6,07.7,0000.9,0028.45,0007.59,0004.85
2021-12-14 09:28:00,,0823.2,5.00,0.00,25.8,24.9,00.0,34.8,27.6,07.7,0000.0,0030.32,0007.60,0004.84
2021-12-14 09:29:00,,0823.2,4.99,0.00,25.8,24.9,00.0,34.8,27.6,07.7,0000.0,0031.29,0007.59,0004.83
2021-12-14 09:30:00,,0823.2,5.02,0.00,25.8,24.9,00.0,34.8,27.6,07.7,0000.0,0033.95,0007.65,0004.84
2021-12-14 09:31:00,,0823.2,4.99,0.00,25.8,24.9,00.0,34.8,27.6,07.7,0000.0,0034.91,0007.68,0004.85
2021-12-14 09:32:00,,0823.1,5.02,0.00,25.8,24.9,00.0,34.8,27.6,07.7,0000.9,0036.00,0007.64,0004.84
2021-12-14 09:33:00,,0823.1,4.99,0.00,25.8,24.9,00.0,34.8,27.5,07.7,0000.5,0035.93,0007.67,0004.84
2021-12-14 09:34:00,,0823.1,5.00,0.00,25.8,24.9,00.0,34.8,27.5,07.7,0000.4,0036.72,0007.81,0004.86
2021-12-14 09:35:00,,0823.1,5.00,0.00,25.8,24.9,00.0,34.8,27.5,07.7,0000.0,0037.73,0007.96,0004.91
2021-12-14 09:36:00,,0823.1,5.00,0.00,25.8,24.9,00.0,34.8,27.5,07.8,0000.0,0037.80,0008.07,0004.94
2021-12-14 09:37:00,,0823.2,5.01,0.00,25.8,24.9,00.0,34.7,27.5,07.8,0000.0,0039.84,0008.05,0004.95
2021-12-14 09:38:00,,0823.1,4.99,0.00,25.7,24.9,00.0,34.7,27.5,07.8,0000.0,0040.99,0008.03,0004.96
2021-12-14 09:39:00,,0823.1,5.01,0.00,25.7,24.8,00.0,34.7,27.5,07.9,0000.0,0039.54,0008.03,0004.97
2021-12-14 09:40:00,,0823.1,4.99,0.00,25.7,24.8,00.0,34.7,27.5,07.9,0000.0,0038.71,0008.18,0005.03
2021-12-14 09:41:00,,0823.1,5.02,0.00,25.8,24.9,00.0,34.7,27.5,07.9,0000.0,0036.85,0008.22,0005.06
2021-12-14 09:42:00,,0823.1,4.99,0.00,25.8,24.8,00.0,34.7,27.5,07.9,0002.0,0034.87,0008.19,0005.08
2021-12-14 09:43:00,,0823.1,5.00,0.00,25.8,24.8,00.0,34.7,27.5,07.8,0000.0,0035.00,0008.16,0005.08
2021-12-14 09:44:00,,0823.1,5.01,0.00,25.7,24.8,00.0,34.7,27.5,07.7,0000.0,0034.31,0008.21,0005.06
2021-12-14 09:45:00,,0823.0,4.99,0.00,25.7,24.8,00.0,34.7,27.5,07.8,0000.0,0033.84,0008.15,0005.05
2021-12-14 09:46:00,,0822.9,5.00,0.00,25.7,24.8,00.0,34.7,27.4,07.7,0000.4,0033.07,0008.10,0005.05
2021-12-14 09:47:00,,0822.8,4.99,0.00,25.7,24.8,00.0,34.7,27.4,07.7,0004.4,0032.95,0008.05,0005.04
2021-12-14 09:48:00,,0822.8,4.99,0.00,25.7,24.8,00.0,34.7,27.4,07.7,0003.8,0031.70,0008.11,0005.03
2021-12-14 09:49:00,,0822.8,5.00,0.00,25.7,24.8,00.0,34.7,27.4,07.8,0003.0,0031.01,0008.24,0005.02
2021-12-14 09:50:00,,0822.8,4.98,0.00,25.7,24.8,00.0,34.7,27.4,07.8,0003.1,0031.79,0008.30,0004.99
2021-12-14 09:51:00,,0822.8,5.00,0.00,25.6,24.8,00.0,34.7,27.3,07.8,0004.0,0032.73,0008.34,0004.94
2021-12-14 09:52:00,,0822.8,4.99,0.00,25.6,24.8,00.0,34.7,27.3,07.8,0004.1,0032.51,0008.33,0004.91
2021-12-14 09:53:00,,0822.8,5.01,0.00,25.6,24.7,00.0,34.7,27.4,07.8,0004.2,0033.38,0008.39,0004.88
2021-12-14 09:54:00,,0822.7,5.00,0.00,25.6,24.7,00.0,34.7,27.3,07.8,0004.5,0034.58,0008.47,0004.88
2021-12-14 09:55:00,,0822.7,4.99,0.00,25.6,24.7,00.0,34.6,27.3,07.8,0004.0,0035.42,0008.47,0004.90
2021-12-14 09:56:00,,0822.8,5.01,0.00,25.6,24.7,00.0,34.6,27.3,07.8,0003.9,0035.73,0008.47,0004.92
2021-12-14 09:57:00,,0822.8,4.99,0.00,25.6,24.7,00.0,34.6,27.3,07.8,0003.2,0036.07,0008.42,0004.95
2021-12-14 09:58:00,,0822.8,5.00,0.00,25.6,24.7,00.0,34.6,27.3,07.5,0003.4,0036.42,0008.36,0004.95
2021-12-14 09:59:00,,0822.8,4.99,0.00,25.5,24.7,00.0,34.6,27.2,07.8,0003.6,0036.37,0008.31,0004.96
